Regional Weather Roundup
Issued by NWS

Home | Current Version | Previous Version | Text Only | Print | Product List | Glossary Off
Versions: 1 2 3 4 5 6 7 8 9 10 11 12 13 14 15 16 17 18 19 20 21 22 23 24 25 26 27 28 29 30 31 32 33 34 35 36 37 38 39 40 41 42 43 44 45 46 47 48 49 50

000
ASUS43 KLSX 031607
RWRMO

WEATHER SUMMARY FOR MISSOURI
NATIONAL WEATHER SERVICE SPRINGFIELD MO
1000 AM CST SAT DEC 03 2016

NOTE: "FAIR" INDICATES FEW OR NO CLOUDS BELOW 12,000 FEET WITH NO
       SIGNIFICANT WEATHER AND/OR OBSTRUCTIONS TO VISIBILITY.
       CURRENT SKY AND/OR WEATHER CONDITIONS ARE NOT AVAILABLE FOR
       CHILLICOTHE AND FARMINGTON.

MOZ001>031-035>038-043-044-053-054-031700-
...NORTHERN AND WESTERN MISSOURI...

CITY           SKY/WX    TMP DP  RH WIND       PRES   REMARKS
KANSAS CTY INT CLOUDY    39  29  67 E12       30.29F
KANSAS C DTWN  CLOUDY    39  31  72 E5        30.30F
LEE`S SUMMIT   CLOUDY    40  30  67 E8        30.30S
ST JOSEPH      CLOUDY    34  30  85 E3        30.32R
CHILLICOTHE      N/A     37  32  82 SE6       30.35R
KIRKSVILLE     SUNNY     35  33  92 E8        30.36R WCI  29

$$
MOZ066>068-077>081-088>096-101>105-031700-
...SOUTHWEST MISSOURI...

CITY           SKY/WX    TMP DP  RH WIND       PRES   REMARKS
SPRINGFIELD    CLOUDY    45  30  55 SE12      30.27R
JOPLIN         CLOUDY    48  34  58 SE9       30.26R

$$
MOZ032>034-039>042-045>050-055>058-069>072-031700-
...CENTRAL MISSOURI...

CITY           SKY/WX    TMP DP  RH WIND       PRES   REMARKS
COLUMBIA       SUNNY     39  31  72 SE6       30.33R
JEFFERSON CITY MOSUNNY   34  31  88 CALM      30.34S
ROLLA          CLOUDY    37  30  75 SE9       30.31S
SEDALIA        CLOUDY    43  32  65 E6        30.32R
WHITEMAN AFB   PTSUNNY   41  35  76 SE6       30.30R
WARRENSBURG    CLOUDY    41  32  70 E6        30.31S
OSAGE BEACH    CLOUDY    39  29  67 E5        30.32S

$$
MOZ051-052-059>065-031700-
...EAST CENTRAL MISSOURI...

CITY           SKY/WX    TMP DP  RH WIND       PRES   REMARKS
ST LOUIS INTL  CLOUDY    42  30  62 SE8       30.37S
SPIRIT OF STL  CLOUDY    39  34  82 CALM      30.37S
ST CHARLES     CLOUDY    38  35  89 E5        30.38S

$$
MOZ072>076-082>087-097>100-106>115-031700-
...SOUTH CENTRAL AND SOUTHEAST MISSOURI...

CITY           SKY/WX    TMP DP  RH WIND       PRES   REMARKS
CAPE GIRARDEAU PTSUNNY   42  32  67 E10       30.37S
FARMINGTON     CLOUDY    37  33  85 CALM      30.36S
POPLAR BLUFF   CLOUDY    43  34  70 E8        30.37R
WEST PLAINS    CLOUDY    41  32  70 SE7       30.35R

$$



USA.gov is the U.S. government's official web portal to all federal, state and local government web resources and services.